www.pogodaiklimat.ru

Погода и климат >> Архив погоды >> Индонезия >> Толи-Толи


ПОГОДА в Толи-Толи

  • Прогноз погоды в Толи-Толи
  • Монитор погоды в Толи-Толи

АРХИВ ПОГОДЫ в Толи-Толи

Время (UTC), дата Ветер
(напр.,м/с)
 
Видим.   Явления Облачность Т
(С)
Тd
(С)
f
(%)
Тe
(С)
Тes
(С)
Комфортность P
(гПа)
Po
(гПа)
Тmin
(С)
Tmax
(С)
R
(мм)
R24
(мм)
S
(см)
18 13.09 В 1 8000 м 4/3 600 м
[Sc As op Ci fib]
+23.4 +21.2 87 +31 +31 очень
душно
1010.1 1009.8
21 13.09 В 1 8000 м 4/3 600 м
[Sc As op Ci fib]
+22.4 +19.2 82 +28 +28 душно 1010.0 1009.8
00 14.09 В 1 11 км 1/1 600 м
[Sc diur, vesp Ci fib]
+26.6 +21.5 74 +34 +40 очень
душно
1011.6 1011.3 +21.8
03 14.09 СЗ 2 11 км 1/1 600 м
[Sc diur, vesp Ci fib]
+31.8 +22.1 57 +41 +59 опасность
перегрева
1010.2 1010.0
06 14.09 СЗ 3 13 км 1/1 600 м
[Cu med, cong As trans Ci fib]
+31.5 +24.5 66 +44 +57 опасность
перегрева
1008.3 1008.0
09 14.09 Ю 2 14 км 1/1 600 м
[Sc As trans]
+30.4 +24.8 72 +43 +45 опасность
перегрева
1008.3 1008.0
12 14.09 В 1 8000 м 3/1 600 м
[Sc As trans Ci fib]
+27.3 +24.8 86 +39 +39 очень
душно
1010.4 1010.2 +32.5
15 14.09 В 2 8000 м 3/1 600 м
[Sc As trans]
+25.0 +24.0 94 +34 +34 очень
душно
1011.4 1011.2
18 14.09 штиль 0 8000 м 3/1 600 м
[Sc As trans Ci fib]
+24.3 +23.0 92 +32 +32 очень
душно
1010.7 1010.4
21 14.09 штиль 0 8000 м 3/1 600 м
[Sc As trans Ci fib]
+23.2 +21.3 89 +31 +31 очень
душно
1010.7 1010.4
00 15.09 В 1 11 км 1/1 600 м
[Sc diur, vesp Ci fib]
+27.6 +22.9 76 +37 +43 очень
душно
1011.7 1011.4 +23.0
03 15.09 З 2 11 км 1/1 600 м
[Sc As trans Ci fib]
+30.8 +22.9 63 +41 +59 опасность
перегрева
1010.5 1010.2
06 15.09 СЗ 6 12 км 1/1 600 м
[Cu hum As trans Ci fib]
+31.8 +24.4 65 +44 +50 опасность
перегрева
1007.8 1007.5
09 15.09 З 2 13 км 1/1 600 м
[Sc diur, vesp As trans Ci fib]
+30.9 +21.1 56 +38 +40 очень
душно
1007.7 1007.5
12 15.09 В 2 9000 м 1/1 600 м
[Sc diur, vesp As trans Ci fib]
+25.5 +20.9 76 +32 +32 очень
душно
1009.9 1009.7 +32.6
15 15.09 В 3 8000 м 1/1 600 м
[Sc As trans Ci fib]
+25.2 +21.1 78 +32 +32 очень
душно
1010.9 1010.6
18 15.09 В 2 8000 м 3/1 600 м
[Sc As trans Ci fib]
+23.5 +20.2 82 +29 +29 душно 1010.1 1009.8
21 15.09 В 2 8000 м 3/1 600 м
[Sc As trans Ci fib]
+23.1 +21.3 90 +31 +31 очень
душно
1010.0 1009.7
00 16.09 В 2 13 км 4/3 600 м
[Sc As trans Ci fib]
+26.8 +23.8 84 +37 +41 очень
душно
1011.4 1011.2 +21.5
03 16.09 СЗ 3 13 км 4/4 600 м
[Sc As op Ci fib]
+31.2 +24.3 67 +43 +55 опасность
перегрева
1010.3 1010.0
06 16.09 СЗ 1 13 км 4/4 600 м
[Sc As trans Ci fib]
+32.8 +24.8 63 +46 +58 опасность
перегрева
1009.1 1007.9
09 16.09 З 2 13 км 1/1 600 м
[Sc diur, vesp As trans Ci fib]
+30.4 +25.3 74 +44 +45 опасность
перегрева
1007.7 1007.4
12 16.09 В 2 8000 м 1/1 600 м
[Sc diur, vesp As trans Ci fib]
+27.0 +25.2 90 +39 +39 очень
душно
1009.6 1009.3 +32.5
15 16.09 В 3 8000 м 1/1 600 м
[Sc diur, vesp As trans Ci fib]
+24.8 +24.0 95 +34 +34 очень
душно
1010.4 1010.1
18 16.09 В 1 8000 м 1/1 600 м
[Sc diur, vesp As trans Ci fib]
+23.6 +21.6 89 +30 +30 очень
душно
1009.4 1009.2
21 16.09 8000 м н/о +22.4 +19.2 82 +28 +28 душно 1009.5 1009.3
00 17.09 В 1 15 км 3/1 600 м
[Sc As trans]
+27.8 +23.7 78 +38 +43 очень
душно
1011.2 1010.9 +22.4
03 17.09 штиль 0 50 км ?/? +30.6 +24.9 72 +44 +44 опасность
перегрева
1010.8 1010.6
06 17.09 СЗ 2 14 км 4/3 600 м
[Sc As op Ci fib]
+31.0 +25.3 72 +45 +57 опасность
перегрева
1008.3 1008.0
09 17.09 З 2 13 км 4/4 600 м
[Sc As trans Ci fib]
+29.8 +25.5 78 +44 +45 опасность
перегрева
1009.0 1008.7
12 17.09 З 2 10 км 4/4 600 м
[Sc As trans Ci fib]
+27.6 +23.8 80 +38 +38 очень
душно
1009.8 1009.5 +32.8
15 17.09 В 2 8000 м 4/4 600 м
[Sc diur, vesp As op Ci fib]
+25.7 +23.1 86 +34 +34 очень
душно
1012.1 1011.9
18 17.09 В 2 8000 м 6/4 600 м
[Sc diur, vesp As op Ci fib]
+24.8 +22.0 84 +32 +32 очень
душно
1011.0 1010.8
21 17.09 В 2 8000 м 6/3 600 м
[Sc diur, vesp As op Ci fib]
+23.8 +21.3 86 +30 +30 очень
душно
1011.0 1010.8
00 18.09 В 1 15 км 4/1 600 м
[Sc As trans Ci fib]
+28.2 +24.7 81 +40 +45 очень
душно
1012.1 1011.8 +23.9
03 18.09 СЗ 3 13 км 4/4 600 м
[Cu med, cong As trans Ci fib]
+31.4 +24.5 67 +44 +55 опасность
перегрева
1011.3 1011.0
06 18.09 З 3 13 км 5/3 600 м
[Cu med, cong As op Ci fib]
+32.0 +26.4 72 +48 +57 опасность
перегрева
1009.1 1008.9
09 18.09 СЗ 2 12 км 10/4 600 м
[Sc As op Ci fib]
+30.8 +25.4 73 +45 +45 опасность
перегрева
1009.5 1009.3
12 18.09 В 1 8000 м 8/4 600 м
[Sc As op Ci fib]
+26.8 +25.0 90 +39 +39 очень
душно
1011.4 1011.1 +32.2
15 18.09 В 1 8000 м 5/3 600 м
[Sc As op Ci fib]
+25.4 +23.3 88 +34 +34 очень
душно
1012.0 1011.7
18 18.09 В 2 8000 м 4/4 600 м
[Sc As trans Ci fib]
+24.8 +23.2 91 +33 +33 очень
душно
1010.8 1010.6
21 18.09 В 2 8000 м 4/4 600 м
[Sc As trans Ci fib]
+24.8 +22.6 88 +33 +33 очень
душно
1011.6 1011.4
00 19.09 штиль 0 15 км 1/1 600 м
[Sc As trans]
+28.4 +23.7 76 +39 +46 очень
душно
1013.1 1012.9 +24.0
03 19.09 З 3 12 км 4/3 600 м
[Cu med, cong As trans Ci fib]
+30.8 +26.3 77 +47 +59 опасность
перегрева
1011.7 1011.5
06 19.09 СЗ 3 13 км 4/4 600 м
[Cu med, cong As trans Ci fib]
+31.8 +26.2 72 +48 +56 опасность
перегрева
1009.2 1009.0
09 19.09 штиль 0 12 км 6/3 600 м
[Sc diur, vesp As op Ci fib]
+30.2 +22.7 64 +40 +41 очень
душно
1009.5 1009.2
12 19.09 В 2 8000 м 6/3 600 м
[Sc As op Ci fib]
+26.0 +22.2 80 +34 +34 очень
душно
1011.3 1011.0 +31.8
15 19.09 ЮВ 1 8000 м 6/3 600 м
[Sc As op Ci fib]
+24.2 +21.7 86 +31 +31 очень
душно
1011.4 1011.1
18 19.09 штиль 0 8000 м 6/3 600 м
[Sc As op Ci fib]
+24.4 +23.1 92 +32 +32 очень
душно
1011.0 1010.8
21 19.09 В 1 8000 м 9/4 600 м
[Sc As op Ci fib]
+23.0 +22.3 96 +31 +31 очень
душно
1010.3 1010.0
00 20.09 В 2 н/о 1/1 600 м
[Sc diur, vesp As trans Ci fib]
+28.4 +24.3 78 +40 +45 очень
душно
1011.7 1011.5 +22.8
03 20.09 З 2 13 км 1/1 600 м
[Sc diur, vesp As trans Ci fib]
+30.8 +25.7 74 +45 +64 опасность
перегрева
1010.5 1010.3
06 20.09 З 2 12 км 6/4 600 м
[Cb cap As op Ci fib]
+31.5 +24.3 66 +44 +52 опасность
перегрева
1008.5 1008.3
09 20.09 СВ 1 12 км 9/4 600 м
[Sc diur, vesp Ac As Ci fib]
+28.8 +24.1 76 +40 +41 очень
душно
1008.4 1008.1
12 20.09 В 2 8000 м 4/1 600 м
[Sc As trans Ci fib]
+26.1 +24.7 92 +37 +37 очень
душно
1010.6 1010.4 +31.5
15 20.09 В 2 8000 м 3/1 600 м
[Sc As trans Ci fib]
+24.6 +23.0 91 +33 +33 очень
душно
1011.0 1010.7

 

Местоположение метеостанции Толи-Толи (Индонезия): широта 1.02 долгота 120.80 высота над уровнем моря 2 м.

В архиве по умолчанию представлена погода в Толи-Толи за последнюю неделю. Архивные данные за месяц целиком и за предыдущие месяцы, начиная с января 2011 года, Вы можете получить, выбрав интересующий диапазон дат из раскрывающегося списка и нажав кнопку "Ввод!".


*Определитесь, кто Вы:
робот инопланетянин человек

Внимание! Время в таблицах - всемирное. Для получения местного времени необходимо прибавить поправку, которая равна 8 ч.

Смотрите также архив погоды в соседних городах и на ближайших метеорологических станциях:

Погода в Палу (Индонезия) (223 км)
Погода в Горонтало (Индонезия) (257 км)
Погода в Посо (Индонезия) (267 км)
Погода в Лувуке (Индонезия) (307 км)
Погода в Танджунгредепе (Индонезия) (392 км)
Погода в Масамбе (Индонезия) (400 км)
Погода в Танджунгселоре (Индонезия) (436 км)
Погода в Маджене (Индонезия) (440 км)
Погода в Таракане (Индонезия) (442 км)
Погода в Самаринде (Индонезия) (445 км)

Пояснения к столбцам:

Ветер - указаны скорость ветра в м/с - средняя за 10 мин, порывы в срок и между сроками (в фигурных скобках) и направление, откуда дует ветер: С - северный, СВ - северо-восточный, В - восточный, ЮВ - юго-восточный, Ю - южный, ЮЗ - юго-западный, З - западный, СЗ - северо-западный.
Видимость - горизонтальная дальность видимости в метрах или километрах. При видимости от 1 до 10 км при отсутствии осадков обычно наблюдается дымка, при ухудшении видимости до 1 км и менее - туман. В сухую погоду видимость может ухудшаться дымом, пылью или мглою.
Явления - указаны атмосферные явления, наблюдавшиеся в срок или в последний час перед сроком; фигурными скобками обозначены явления, наблюдавшиеся между сроками (за 1-3 часа до срока); квадратными скобками обозначены град или гололедные отложения с указанием их диаметра в мм.
Облачность - указаны через наклонную черту общая и нижняя облачность в баллах и высота нижней границы облаков в метрах; квадратными скобками обозначены формы облаков: Ci - перистые, Cs - перисто-слоистые, Cc - перисто-кучевые, Ac - высококучевые, As - высокослоистые, Sc - слоисто-кучевые, Ns - слоисто-дождевые, Cu - кучевые, Cb - кучево-дождевые. Подробнее классификацию облаков см. в Атласе облаков (PDF).
T - Температура воздуха - температура, измеренная на высоте 2 м над землей.
Td - Температура точки росы - температура, при понижении до которой содержащийся в воздухе водяной пар достигнет насыщения.
f - Относительная влажность воздуха - влажноcть воздуха, измеренная на высоте 2 м над землей.
Te - Эффективная температура - температура, которую ощущает одетый по сезону человек в тени. Характеристика душности погоды. При расчете учитывается влияние влажности воздуха и скорости ветра на теплоощущения человека.
Tes - Эффективная температура на солнце - температура, которую ощущает человек, с поправкой на солнечный нагрев. Характеристика знойности погоды. Зависит от высоты солнца над горизонтом, облачности и скорости ветра. Ночью, в пасмурную погоду, а также при ветре 12 м/с и более поправка равна нулю.
P - Атмосферное давление - приведенное к уровню моря атмосферное давление.
Po - Атмосферное давление - измеренное на уровне метеостанции атмосферное давление.
Tmin - Минимальная температура - минимум температуры воздуха на высоте 2 м над землей.
Tmax - Максимальная температура - максимум температуры воздуха на высоте 2 м над землей.
R - Количество осадков - Количество выпавших осадков за период времени, мм. При наведении курсора мыши на число - период времени, за который выпало указанное количество осадков.
R24 - Количество осадков - Количество выпавших осадков за 24 часа, мм.
S - Снежный покров - Высота снежного покрова, см. При наведении курсора мыши на число - состояние снежного покрова и степень покрытия местности в баллах.